Location: Absher
(46.5583°N, 107.9840°W)
Time: 19:00:28
(UTC+00:00)

N. Korean satellite - Visible Passes

Search period start: 27 November 2022 00:00
Search period end: 07 December 2022 00:00
Orbit: 422 x 454 km, 97.3° (Epoch: 26 November)

Date Brightness Start Highest point End Pass type
(mag) Time Alt. Az. Time Alt. Az. Time Alt. Az.
27 Nov 6.3 12:42:47 10° N 12:46:13 78° WNW 12:49:37 10° SSW visible
28 Nov 9.9 00:49:24 10° WSW 00:50:41 12° W 00:51:58 10° WNW visible
28 Nov 8.3 12:04:24 10° NNE 12:07:31 32° E 12:10:36 10° SSE visible
28 Nov 7.9 13:37:27 10° NNW 13:39:48 18° WNW 13:42:09 10° WSW visible
29 Nov 8.4 00:08:41 10° SSW 00:11:45 33° W 00:14:52 10° NNW visible
29 Nov 9.9 11:27:24 10° ENE 11:28:33 11° E 11:29:42 10° ESE visible
29 Nov 6.6 12:58:02 10° N 13:01:22 48° WNW 13:04:39 10° SSW visible
30 Nov 7.3 12:19:20 10° NNE 12:22:41 49° E 12:25:59 10° S visible
30 Nov 8.3 13:53:18 10° NW 13:54:46 12° WNW 13:56:14 10° W visible
01 Dec 9.3 00:24:13 10° SSW 00:26:55 22° W 00:29:39 10° NW visible
01 Dec 9.4 11:41:26 10° NE 11:43:44 17° E 11:46:01 10° SE visible
01 Dec 7.1 13:13:16 10° N 13:16:21 31° WNW 13:19:24 10° SW visible
02 Dec 6.4 12:34:14 10° NNE 12:37:40 80° ESE 12:41:04 10° S visible
03 Dec 9.7 00:39:56 10° SW 00:41:58 15° W 00:44:01 10° NW visible
03 Dec 8.7 11:55:53 10° NE 11:58:44 25° E 12:01:35 10° SSE visible
03 Dec 7.6 13:28:29 10° NNW 13:31:09 22° WNW 13:33:48 10° WSW visible
03 Dec 7.8 23:59:41 10° S 00:02:55 44° W 00:06:12 10° NNW visible
04 Dec 6.3 12:49:06 10° N 12:52:29 65° WNW 12:55:50 10° SSW visible
05 Dec 10.3 00:56:38 10° W 00:56:54 10° W 00:57:10 10° W visible
05 Dec 7.9 12:10:23 10° NNE 12:13:35 37° E 12:16:43 10° SSE visible
05 Dec 8.1 13:43:44 10° NNW 13:45:47 15° WNW 13:47:49 10° WSW visible
06 Dec 8.7 00:14:43 10° SSW 00:17:42 28° W 00:20:43 10° NW visible
06 Dec 9.7 11:32:46 10° ENE 11:34:24 13° E 11:36:02 10° ESE visible
06 Dec 6.7 13:03:54 10° N 13:07:08 41° WNW 13:10:19 10° SW visible
